Temp
12 12 12 12 11 11 11 11 11 11 11 11 11 11 11 11 11 11 10 10 10 10 10 10 10 10 10 9 9 9 9 10 10 11 11 12 12 12 12 12 12 12 12 12 12 12 12 12 11 11 11 11
12 12 12 11 11 11 11 11 11 11 11 11 10 10 10 10 10 10 10 10 10 9 9 9 9 9 9 9 9 9 9 10 10 11 11 12 12 12 12 12 12 12 12 12 12 12 12 11 11 11 11 11
11 11 11 11 11 11 11 10 10 10 10 10 10 10 10 10 9 9 9 9 9 9 9 9 9 9 9 9 9 9 9 10 10 11 11 11 11 11 11 11 11 12 12 12 12 12 11 11 11 11 11 10
11 11 11 11 10 10 10 10 10 10 10 10 10 9 9 9 9 9 9 9 9 8 8 8 8 8 8 8 9 9 9 10 10 11 11 11 11 11 11 11 11 11 11 12 12 11 11 11 11 11 10 10
11 10 10 10 10 10 10 10 9 9 9 9 9 9 8 8 8 8 8 8 8 8 8 8 8 8 8 8 9 9 10 10 10 10 11 11 11 11 11 11 11 11 11 11 11 11 11 11 10 10 10 10
10 10 10 10 10 9 9 9 9 9 9 9 8 8 8 8 8 8 8 8 7 7 7 8 8 8 8 8 9 10 10 10 10 10 10 10 10 11 11 11 11 11 11 11 11 11 10 10 10 10 10 9
10 10 10 9 9 9 9 9 9 8 8 8 8 8 8 8 8 7 7 7 7 7 8 8 8 8 8 9 10 10 10 10 10 10 10 10 10 10 10 10 10 11 11 10 10 10 10 10 10 10 9 9
10 10 9 9 9 9 9 8 8 8 8 8 8 8 8 8 8 8 8 8 8 8 8 9 9 9 9 10 10 10 10 10 10 10 10 10 10 10 10 10 10 10 11 10 10 10 10 10 10 9 9 9
10 9 9 9 8 8 8 8 8 8 8 8 8 8 8 8 8 8 8 8 8 9 9 9 10 10 10 10 10 10 10 10 10 10 10 10 10 10 10 10 10 10 10 10 10 10 9 9 9 9 9 9
9 9 9 8 8 8 7 7 7 8 8 7 8 8 8 8 8 8 8 8 9 9 9 9 10 10 10 9 9 9 9 10 10 10 10 10 9 9 9 9 9 9 10 10 10 9 9 9 9 9 9 9
9 9 9 8 8 7 7 7 7 8 7 7 8 8 8 9 9 9 9 9 9 9 9 9 9 9 9 9 9 9 9 9 9 9 9 9 9 9 9 9 9 9 9 9 10 9 8 8 8 8 8 9
9 9 8 8 8 7 7 7 7 8 7 8 8 8 8 9 9 9 9 9 8 8 8 8 8 8 8 8 8 8 9 9 9 9 9 9 9 9 9 8 8 8 8 8 9 9 8 8 8 8 8 8
8 9 8 8 8 7 7 7 7 8 8 8 8 8 8 9 9 9 9 9 8 8 8 8 8 8 8 8 8 8 8 8 8 8 8 8 8 8 8 8 8 7 7 7 8 8 8 7 7 7 7 7
8 9 9 8 8 8 7 7 7 8 8 8 8 8 8 9 9 9 8 8 8 8 8 8 8 8 8 8 8 8 8 8 8 8 8 8 8 8 8 7 7 7 7 7 6 7 7 7 6 6 6 6
8 9 9 8 8 8 8 7 8 8 8 8 8 8 8 8 9 8 8 8 8 8 8 8 8 8 8 8 8 8 7 8 7 7 7 7 7 7 7 7 7 7 6 6 6 6 6 6 6 6 6 6
8 8 8 8 8 8 8 7 8 8 8 8 8 8 8 8 8 8 8 8 8 8 8 8 8 8 8 8 8 7 7 7 7 7 7 7 7 6 6 6 6 6 6 6 6 5 5 6 5 5 5 5
7 7 8 8 8 8 8 7 7 8 8 8 8 8 8 8 8 8 8 8 8 8 8 8 8 8 8 8 7 7 7 7 7 7 6 6 6 6 6 6 6 5 5 6 5 5 5 5 5 5 5 5
7 7 7 8 8 8 8 7 7 8 8 7 7 7 8 8 7 8 8 8 7 7 7 7 8 8 8 7 7 7 7 6 6 6 6 6 5 5 5 5 5 5 5 5 5 5 5 5 5 5 5 5
7 7 7 7 7 7 7 7 7 7 7 7 7 7 7 7 7 7 7 7 7 7 7 7 7 8 7 7 7 6 6 6 6 6 6 5 5 5 5 5 5 5 5 5 5 5 4 4 4 4 4 4
7 7 7 7 7 7 7 7 7 7 7 7 7 7 7 7 7 7 7 7 7 7 7 7 7 7 7 6 6 6 5 5 5 5 5 5 5 5 5 5 5 5 5 5 5 4 4 4 4 4 4 4
7 7 7 7 7 7 6 6 7 7 7 6 7 7 7 7 6 6 7 7 7 7 7 7 7 7 6 6 6 5 5 5 5 5 5 5 5 5 5 5 5 5 4 4 5 4 4 4 4 4 4 4
7 7 7 7 7 6 6 6 6 6 6 6 6 6 7 7 6 6 7 7 7 6 6 6 6 6 6 5 5 5 5 5 5 5 5 5 5 4 4 5 5 4 4 4 4 4 4 4 4 4 4 4
7 6 6 6 6 6 6 6 6 6 6 6 6 6 6 6 6 6 6 6 6 6 6 6 6 6 5 5 5 5 5 5 5 5 5 5 5 4 4 4 4 4 4 4 4 4 4 4 4 4 4 4
6 6 6 6 6 6 6 6 6 6 6 6 6 6 6 6 6 6 6 6 6 5 5 5 5 5 5 5 5 4 5 5 5 5 5 5 4 4 4 4 4 4 4 4 4 4 4 4 4 4 4 3
6 6 6 5 6 6 6 6 6 6 6 5 5 6 6 6 6 5 5 5 5 5 5 5 5 5 5 5 4 4 5 5 5 5 4 4 4 4 4 4 4 4 4 4 3 4 4 4 4 4 4 3
7 7 6 6 6 6 6 6 6 6 6 5 5 5 5 5 5 5 5 5 5 5 5 5 5 5 5 5 4 4 5 5 5 4 4 4 4 4 3 4 4 4 4 3 3 3 3 3 4 4 4 4
7 7 7 6 6 6 6 6 6 6 5 5 5 5 5 5 5 5 5 5 5 5 5 5 5 5 5 5 4 4 4 4 4 4 4 4 4 4 3 3 3 3 3 3 3 2 2 3 3 4 4 3
7 7 6 6 6 6 5 5 5 5 5 5 5 5 5 5 5 5 5 5 5 5 5 4 4 4 4 4 4 4 4 4 4 4 4 3 3 3 3 3 3 3 3 3 3 2 2 1 1 4 4 2
7 6 6 6 5 5 5 5 5 5 5 5 5 5 5 5 5 5 5 5 5 5 5 4 4 4 4 4 4 4 4 4 4 4 4 3 3 3 3 3 3 3 3 3 3 3 2 1 2 4 3 1
7 6 6 6 5 5 5 4 4 5 5 5 5 5 5 5 5 5 5 5 5 5 5 4 4 4 4 4 4 4 4 4 4 4 4 4 4 3 3 3 3 2 2 2 2 3 3 3 3 3 2 2
5 6 6 6 6 6 5 5 5 6 6 6 5 5 5 5 5 5 5 5 5 5 5 5 4 4 4 4 4 4 3 3 3 4 4 4 4 3 3 3 2 2 3 2 2 2 3 3 3 2 2 2
Height
821 823 824 825 826 827 828 829 829 830 831 831 832 833 834 834 834 835 836 836 837 838 838 838 838 838 838 839 839 839 839 839 839 838 838 838 838 838 838 838 838 838 838 838 838 838 838 839 839 839 839 840
821 822 823 824 826 826 827 828 829 830 830 831 832 833 833 834 834 835 835 836 837 837 837 838 838 838 839 839 839 839 839 839 839 839 838 838 838 838 838 838 838 838 838 838 838 838 839 839 840 840 840 840
820 822 823 824 825 826 827 828 829 829 830 831 831 832 833 833 834 835 835 836 836 837 837 837 837 838 838 839 839 839 839 839 839 839 839 839 839 839 839 838 838 838 838 838 839 839 839 840 840 841 841 841
819 821 822 824 825 826 827 827 828 829 830 831 831 832 832 833 833 834 835 835 836 836 837 836 837 837 838 839 839 839 840 840 840 839 839 839 839 839 839 839 839 838 838 839 839 839 840 840 841 841 842 842
818 820 822 823 824 825 826 827 828 829 830 830 830 831 831 832 833 833 834 834 835 835 836 836 836 837 838 838 839 839 840 840 840 840 840 839 839 839 839 839 839 839 839 839 839 840 840 841 841 841 842 842
817 819 820 822 823 824 826 826 827 828 828 829 829 830 830 831 832 833 833 834 834 834 835 835 836 837 837 838 838 839 839 840 840 840 840 840 840 839 839 839 839 839 839 840 840 840 841 841 841 841 842 842
816 818 819 821 822 823 825 825 826 827 827 828 828 829 830 831 832 833 833 834 834 834 835 835 836 836 837 837 838 838 839 839 840 840 840 840 840 840 840 840 840 840 840 840 841 841 841 841 841 841 842 842
815 817 819 820 822 823 824 824 825 826 827 827 828 829 829 830 832 833 833 834 834 834 835 835 836 836 836 837 837 838 838 839 839 840 840 840 840 840 840 840 840 840 840 841 841 841 841 841 841 842 842 842
814 816 817 819 821 822 823 824 824 825 826 827 827 828 829 830 831 832 833 833 834 834 835 835 836 836 837 837 838 838 838 839 839 840 840 840 841 840 841 840 841 841 841 841 841 842 842 842 842 842 842 842
813 815 816 818 820 821 822 823 823 824 825 826 827 827 828 830 831 832 833 833 834 834 835 836 836 837 837 838 838 838 839 839 840 840 840 841 841 841 841 841 841 841 841 841 841 842 842 842 842 842 842 842
812 814 815 817 819 820 820 821 822 823 824 825 826 826 827 829 830 831 832 833 834 834 835 836 836 837 837 838 838 839 839 839 840 840 841 841 841 841 841 841 841 841 841 841 842 842 842 842 842 842 842 842
812 813 814 816 818 818 819 820 821 821 823 824 825 826 827 828 830 831 832 832 833 834 835 835 836 837 837 837 838 839 839 840 840 840 841 841 841 841 841 841 841 841 841 842 842 842 842 842 842 842 842 843
810 812 813 815 816 817 818 819 820 821 822 823 824 825 826 827 829 830 831 832 833 833 834 835 836 836 837 837 838 839 839 840 840 840 841 841 841 841 841 841 841 841 841 842 842 842 842 842 842 842 842 842
809 811 812 813 814 816 817 817 819 820 821 822 823 824 825 827 828 829 830 831 831 832 833 834 835 836 836 837 838 838 839 839 840 840 841 841 841 841 841 841 841 841 841 841 842 842 842 842 842 842 842 842
808 809 810 812 813 814 815 816 818 819 821 822 823 823 825 826 827 828 829 830 830 831 832 833 834 835 836 837 837 838 839 839 840 840 840 841 841 841 841 841 841 841 841 841 841 841 841 841 842 842 842 842
806 808 809 811 812 813 814 816 817 818 819 821 822 823 824 825 826 827 828 829 829 830 831 831 833 834 835 836 837 837 838 839 839 840 840 841 841 841 842 841 841 841 841 841 841 841 841 841 841 842 842 842
805 806 808 810 811 812 814 815 816 817 818 820 821 822 823 824 825 826 827 827 828 829 830 831 832 833 834 835 836 837 837 838 839 839 840 840 841 841 841 841 841 841 841 841 841 841 841 841 841 841 842 842
804 806 807 809 810 812 813 815 816 817 817 819 820 821 822 823 824 825 826 826 827 828 829 830 831 831 833 834 835 836 836 837 838 838 839 840 840 840 841 841 841 840 841 841 841 841 841 841 841 841 841 842
803 805 807 808 810 811 813 814 815 816 817 818 819 820 821 822 823 824 825 825 826 827 827 828 829 830 831 833 834 835 836 836 837 838 838 839 839 839 840 840 840 840 840 840 840 840 841 841 841 841 841 841
803 805 806 808 809 810 812 813 814 815 816 817 819 820 820 821 822 822 823 824 825 826 826 827 828 829 830 831 832 833 835 835 836 837 837 838 838 838 839 839 839 840 840 840 840 840 840 841 841 841 841 841
802 804 806 808 809 810 811 813 814 815 816 817 818 818 819 820 821 821 822 823 823 824 825 825 826 828 829 830 831 832 833 834 835 836 836 837 837 837 838 838 838 839 839 839 840 840 840 840 840 840 840 840
802 804 806 808 809 810 811 812 813 814 815 816 817 817 818 819 820 821 821 822 822 823 824 825 826 827 828 829 830 831 832 833 834 834 835 835 836 836 837 837 837 838 838 839 839 839 839 839 839 840 840 840
802 804 806 807 809 810 811 812 812 813 814 815 816 816 817 818 819 820 820 821 821 822 823 824 825 826 827 828 828 829 830 831 832 832 833 834 834 835 836 836 837 838 838 839 839 839 839 839 839 839 839 839
802 804 805 807 808 809 809 810 811 812 813 814 815 815 817 817 818 819 820 821 821 822 822 823 824 825 826 826 827 827 828 829 830 831 831 832 833 834 835 836 836 837 838 838 838 838 838 838 838 838 838 838
800 802 803 805 805 806 807 808 809 810 811 812 813 815 816 817 818 819 820 821 821 822 822 823 823 824 824 825 825 826 826 828 829 830 830 831 832 833 833 834 835 836 837 838 838 837 837 836 836 836 836 836
798 799 800 801 802 804 805 807 808 809 810 811 813 814 815 816 817 818 819 820 821 821 821 822 822 822 823 823 824 824 825 826 827 828 829 830 830 831 832 832 833 834 835 836 836 836 837 836 835 834 834 833
797 798 800 801 802 803 805 806 808 809 810 812 813 814 814 815 816 817 818 819 820 820 820 821 821 821 822 822 822 823 824 824 825 826 827 827 828 829 830 830 831 831 832 833 834 837 837 835 834 832 830 830
797 798 800 802 803 804 806 807 808 809 810 811 811 812 813 814 814 815 816 817 818 819 819 820 820 821 821 821 821 822 822 822 823 824 825 826 826 827 828 828 828 829 830 830 832 835 835 836 835 830 827 827
797 799 800 802 803 805 806 807 808 809 809 809 809 810 810 811 813 814 815 816 817 817 818 818 819 819 820 820 821 821 820 821 821 822 823 824 824 825 825 825 826 827 828 828 829 830 831 832 832 828 826 825
797 798 799 800 802 803 804 805 806 805 805 806 807 807 808 810 812 812 813 814 815 815 816 816 817 818 818 819 819 819 819 819 820 820 821 821 821 822 822 823 824 824 825 826 827 827 827 827 826 825 826 825
799 799 799 800 800 801 801 802 803 803 804 804 806 807 808 809 810 811 812 812 813 813 814 814 815 816 816 817 817 818 818 818 818 818 819 819 819 819 820 821 821 821 823 824 824 824 824 824 824 824 825 825
Wind_Speed
21 20 20 19 17 17 16 15 15 14 14 14 14 14 14 14 14 14 14 14 13 13 13 14 14 14 14 13 14 14 14 14 14 14 14 14 13 13 12 12 12 12 11 12 13 13 14 14 15 16 16 17
22 21 20 19 18 17 16 16 15 15 15 15 15 15 15 15 15 14 14 14 14 14 14 14 14 14 14 14 14 14 14 14 14 14 14 13 13 13 12 12 12 11 11 11 12 13 14 15 16 17 18 19
22 22 21 20 19 18 17 17 16 16 16 16 16 16 17 16 16 15 15 14 14 14 14 14 14 14 14 14 14 13 13 13 13 13 13 13 13 13 13 12 12 11 11 11 12 13 14 15 17 18 18 20
23 23 22 20 19 19 18 17 17 17 17 17 18 19 19 18 17 17 16 15 15 15 14 14 15 15 14 14 14 13 13 13 12 12 12 12 13 13 13 13 12 11 11 11 12 13 14 15 16 17 18 20
24 23 23 21 20 20 19 18 18 18 19 20 21 21 21 20 20 20 19 18 17 17 16 17 16 15 14 14 14 14 14 13 13 13 12 12 12 13 13 13 13 12 11 11 12 13 14 15 15 17 18 20
26 25 25 23 21 21 20 19 20 21 21 22 23 22 22 22 22 22 22 21 20 19 19 19 18 16 16 15 15 15 14 14 13 13 13 12 12 12 13 13 13 13 13 13 14 14 14 14 15 17 18 19
28 28 27 25 23 23 23 22 23 23 23 24 24 22 22 23 22 22 22 22 20 19 21 20 19 18 17 17 16 16 15 14 14 14 14 14 14 13 13 13 13 13 14 15 15 15 15 14 15 16 17 18
30 30 28 27 25 25 25 24 24 25 25 25 24 22 22 22 22 21 20 21 19 19 21 20 19 19 18 18 17 16 16 16 16 16 16 15 15 14 14 14 14 14 14 15 15 15 15 15 14 15 17 17
31 31 30 29 27 26 27 26 26 26 25 24 24 21 21 21 21 20 19 19 18 19 20 19 19 18 17 16 16 16 15 16 16 16 16 15 15 15 15 15 15 15 15 16 16 16 15 15 15 15 16 17
32 32 31 31 30 29 28 28 28 26 24 24 23 21 21 20 20 20 19 19 18 18 18 17 17 16 15 15 15 15 15 15 15 15 15 15 16 16 16 16 16 16 15 16 16 16 15 15 16 15 15 15
32 33 32 32 31 30 29 29 28 26 24 24 23 22 22 20 19 20 19 18 18 18 17 17 16 16 16 16 16 16 15 16 16 15 15 16 17 17 16 16 16 16 16 16 16 17 17 16 16 16 15 14
33 33 33 32 31 29 29 29 27 26 24 24 23 23 22 20 20 20 19 19 19 18 18 17 17 17 17 17 17 16 16 16 16 15 16 16 16 16 16 16 16 16 16 16 15 16 17 17 16 16 16 15
33 34 33 33 31 29 29 28 27 26 25 25 25 25 24 22 21 21 20 20 20 19 19 19 18 18 18 18 17 17 17 17 16 16 15 16 16 16 15 15 16 16 16 15 15 15 15 16 16 16 16 16
33 33 33 33 31 29 29 29 27 26 26 26 27 27 26 24 23 22 21 21 21 21 21 20 20 19 19 19 18 18 18 17 17 16 16 16 16 16 16 15 15 16 16 16 15 15 14 14 16 16 16 16
33 32 32 31 30 29 30 29 28 27 27 28 29 29 27 25 24 22 22 22 22 23 22 22 21 20 20 20 19 19 18 18 17 16 16 16 16 16 16 16 15 16 16 17 16 16 15 14 14 15 16 16
33 32 31 31 30 30 30 30 28 28 28 29 29 29 27 26 25 23 22 23 24 24 23 23 22 21 22 21 20 19 19 19 18 17 17 17 16 16 16 15 15 14 15 16 16 16 16 15 15 15 16 16
33 33 32 31 31 30 30 30 29 30 30 29 30 29 28 27 25 23 23 24 25 25 24 24 23 22 22 22 21 20 19 19 19 18 19 18 17 16 16 16 14 13 14 15 16 16 16 16 16 15 15 16
33 33 32 32 31 30 30 30 30 30 30 30 30 30 29 28 26 24 24 26 26 25 25 24 24 24 23 22 21 21 20 20 20 20 20 19 18 17 17 17 15 14 14 14 16 16 15 16 17 16 15 15
34 33 33 32 32 31 30 30 29 30 31 31 30 30 30 30 28 26 25 26 27 26 25 25 25 24 23 22 22 22 21 21 21 20 20 20 19 18 18 18 17 15 15 14 15 15 15 14 15 17 17 15
34 33 32 32 32 31 31 30 30 30 31 31 30 30 30 30 29 27 27 27 27 26 26 26 26 25 23 23 22 22 22 22 22 21 21 21 20 19 19 19 18 17 16 15 15 14 14 14 13 15 17 17
32 32 32 31 31 31 30 30 30 30 30 31 30 30 30 30 30 29 28 28 28 27 27 27 26 25 24 23 23 23 23 22 23 22 22 22 22 21 19 19 20 19 16 16 15 14 14 13 13 13 15 17
31 30 30 29 30 30 30 30 30 30 30 30 30 30 30 30 30 30 30 30 29 28 27 26 26 24 23 24 24 23 23 23 23 23 22 23 23 22 21 20 21 20 18 16 15 14 14 14 14 13 14 15
28 27 27 27 27 28 29 29 29 30 30 30 30 30 30 30 29 30 31 31 29 28 27 26 25 24 24 25 24 24 23 23 23 24 23 23 22 22 21 20 19 19 17 16 16 16 15 15 16 15 14 15
26 25 25 26 26 27 29 29 30 30 30 30 30 30 30 30 30 30 32 32 30 28 27 26 25 25 25 25 25 25 24 25 25 25 24 23 22 21 21 20 18 18 17 16 16 16 17 17 17 17 17 17
27 26 26 26 27 29 30 30 30 30 31 31 31 30 30 30 30 30 31 32 31 30 28 27 26 26 26 26 26 27 26 26 25 26 25 23 22 21 21 20 19 18 17 15 14 15 17 19 19 19 20 21
28 29 28 28 29 30 30 30 30 31 31 30 30 29 29 30 30 30 29 30 31 31 30 29 29 28 28 28 28 28 27 26 25 26 26 24 23 23 23 22 20 19 18 15 14 11 8 12 18 21 23 24
28 28 28 27 27 27 27 27 28 29 28 28 29 29 29 30 30 30 29 29 30 31 31 31 30 30 30 29 29 28 28 26 27 28 28 27 26 25 23 23 22 22 22 18 13 7 3 5 7 12 19 24
26 25 24 24 22 22 22 22 23 24 25 26 27 28 29 30 30 30 29 29 28 29 31 31 30 30 30 30 29 29 29 28 28 29 30 29 27 26 24 24 25 24 24 22 15 7 2 1 1 4 8 15
24 23 21 20 18 16 17 18 18 20 24 26 27 28 30 30 30 30 29 29 29 29 30 31 31 30 30 30 30 30 30 30 30 30 31 30 30 29 28 27 26 25 25 26 23 15 5 1 1 4 3 4
23 23 22 20 19 17 17 18 19 22 26 28 28 29 30 29 29 29 29 29 29 29 29 30 31 31 31 31 31 31 31 30 30 30 31 32 33 32 31 29 26 24 25 26 28 27 18 9 5 3 1 1
16 19 20 21 22 23 22 22 24 26 28 28 28 28 28 28 28 29 29 29 29 29 29 30 31 32 32 32 32 32 32 32 32 32 32 33 34 34 33 30 27 27 26 25 27 31 30 25 18 12 6 4
Wind_Direction
190 190 189 190 188 185 184 179 177 176 174 172 169 167 166 164 161 159 159 158 157 157 154 151 150 149 149 148 146 143 141 140 141 141 141 142 142 142 142 143 146 148 150 149 148 149 148 146 143 141 139 134
192 191 189 190 189 186 186 183 180 179 177 175 172 170 169 167 163 160 160 159 158 158 156 153 152 150 150 148 146 145 144 144 145 146 146 147 146 145 145 146 148 149 149 146 145 145 144 144 143 142 139 132
192 191 190 191 190 187 188 186 182 181 179 178 177 173 172 170 165 164 163 160 160 160 157 155 153 151 151 149 148 149 149 149 150 151 152 151 150 150 150 150 151 152 152 148 145 145 144 143 143 143 139 132
191 190 189 190 191 190 190 189 185 183 182 183 181 176 173 172 169 168 166 164 164 163 161 158 156 152 152 152 151 153 153 154 155 157 157 157 156 156 156 156 156 157 157 152 147 148 147 146 146 144 141 135
192 191 190 191 193 191 191 190 188 185 186 188 185 180 176 174 174 172 170 169 169 168 166 161 157 154 153 156 159 162 161 160 161 161 162 163 162 162 161 161 159 160 158 152 148 150 149 149 149 147 144 141
195 194 192 193 194 192 192 192 191 189 190 192 190 187 181 179 179 177 176 175 174 174 169 163 161 159 160 166 169 170 168 167 167 166 166 166 167 167 167 166 163 163 158 150 148 149 149 150 149 148 148 144
198 197 195 195 195 194 194 194 194 193 194 194 196 196 189 186 186 184 183 182 182 177 170 167 167 167 171 176 175 175 174 172 170 168 168 168 170 170 170 170 169 168 161 154 151 150 151 150 148 149 149 145
199 199 198 198 197 197 196 197 197 197 199 199 202 204 199 196 194 192 191 189 186 177 174 175 175 177 181 182 181 181 180 177 175 174 174 174 173 173 173 173 172 172 168 161 157 154 154 151 147 149 150 147
201 203 203 201 200 200 199 199 200 202 204 204 208 211 207 204 201 199 196 191 185 180 181 184 185 187 187 187 186 187 186 185 183 182 182 179 176 176 176 175 174 175 173 169 165 159 156 153 149 150 152 151
206 208 207 204 203 202 202 202 203 207 208 207 212 216 213 207 202 201 196 190 186 186 189 191 192 191 189 188 189 188 189 190 189 190 188 185 183 181 180 178 176 176 177 175 171 167 161 157 154 153 156 156
209 212 212 209 207 205 205 205 207 212 211 211 216 218 215 208 203 200 195 192 191 192 194 194 194 191 189 189 189 189 190 192 192 193 192 190 188 186 185 182 179 178 179 180 178 173 168 163 160 158 159 162
211 215 215 213 212 210 209 210 213 216 215 215 218 218 214 209 206 204 198 196 195 195 195 194 193 191 190 190 191 192 192 195 195 195 195 194 192 190 189 186 182 181 181 182 184 180 174 170 166 162 161 162
213 216 217 216 216 216 214 216 219 220 219 218 218 216 213 210 209 207 202 201 198 197 196 194 194 193 194 195 195 196 197 199 199 198 195 194 194 192 191 188 185 185 184 183 185 186 181 174 170 166 162 161
214 216 218 219 220 221 220 222 223 223 222 219 217 215 213 212 213 211 207 205 202 200 199 197 197 197 198 200 200 201 203 204 203 202 197 194 193 191 190 188 186 187 187 186 186 189 188 181 175 170 165 162
216 217 221 222 223 224 224 225 225 224 222 218 216 216 215 215 217 215 211 209 207 205 203 202 202 202 204 206 206 206 208 209 207 204 200 195 194 193 190 188 187 188 189 188 187 190 192 191 185 178 172 168
218 219 222 226 226 227 227 226 225 224 222 217 216 216 217 218 220 219 216 213 211 209 207 207 208 208 209 211 212 212 212 213 210 205 201 198 195 195 193 191 190 191 193 191 190 190 192 196 197 190 182 178
221 221 223 227 229 229 228 226 225 225 223 219 217 218 219 221 223 222 220 216 213 213 213 213 214 215 216 216 217 218 216 215 213 208 204 203 199 197 196 195 193 194 198 197 195 192 192 196 201 202 194 187
223 223 225 228 230 229 228 226 226 226 225 223 220 220 222 223 225 224 222 217 215 216 217 219 220 222 222 220 220 221 219 217 215 211 208 207 205 202 202 201 198 199 201 203 202 199 196 197 200 205 206 198
223 225 225 228 230 229 228 228 228 228 227 226 223 223 224 225 225 224 222 218 217 220 222 223 223 225 226 225 224 223 221 219 217 215 211 209 208 208 208 206 206 207 206 206 206 204 204 204 204 206 210 209
222 224 225 227 230 230 229 229 230 230 229 228 227 226 226 226 225 224 223 222 222 223 224 225 226 227 229 227 226 224 222 220 220 218 214 211 212 214 213 209 210 213 214 215 212 210 210 211 213 214 211 212
221 223 225 227 229 230 229 229 231 232 230 230 230 229 228 227 224 224 224 225 226 226 227 228 228 229 230 229 227 225 223 223 224 223 220 216 215 218 219 213 210 212 215 219 218 215 216 217 219 223 220 214
219 221 224 227 229 230 229 230 232 233 232 231 232 232 232 229 226 224 225 226 227 228 229 230 231 231 230 228 227 227 226 227 227 226 223 220 218 219 220 216 212 212 216 219 220 220 221 222 224 228 230 226
217 219 222 225 227 228 229 231 231 232 233 233 234 235 235 233 229 226 225 226 227 228 229 231 232 231 229 228 227 227 228 228 227 224 221 219 217 217 218 219 217 218 222 223 224 226 225 226 230 231 232 234
213 214 217 221 222 224 227 229 230 231 233 234 235 236 237 236 234 230 226 226 227 229 229 231 232 231 229 229 229 229 229 229 227 223 219 216 214 215 217 221 223 225 227 227 230 233 233 231 232 232 232 235
210 211 213 215 219 223 226 226 227 230 232 233 235 236 237 239 238 234 230 228 229 230 231 232 232 231 229 229 231 233 235 234 230 223 219 219 216 217 221 223 224 224 222 227 234 237 241 241 238 235 234 236
214 216 217 218 221 224 226 226 227 230 232 233 234 236 238 241 241 239 236 233 233 233 234 233 233 233 232 232 233 235 237 236 231 224 220 221 220 220 224 225 224 221 216 219 226 231 253 259 248 242 239 239
221 222 222 223 226 226 226 227 230 232 234 235 235 237 239 241 243 242 241 239 238 238 238 237 236 236 235 235 235 235 235 234 230 225 222 223 222 221 224 226 225 221 218 215 212 213 257 264 253 250 244 240
224 223 222 223 227 230 228 230 233 233 235 237 237 238 239 241 243 243 244 244 243 243 242 241 239 238 237 236 236 236 235 234 231 227 225 225 225 223 223 224 223 221 221 216 205 190 212 221 197 260 245 236
224 221 219 218 220 225 226 229 231 229 232 235 235 236 239 240 241 243 245 247 247 246 245 244 242 240 238 238 238 238 237 237 236 232 228 227 227 226 224 224 223 221 220 219 215 210 199 133 197 244 244 239
225 222 218 215 212 214 215 217 222 228 234 235 234 236 238 240 242 243 246 248 248 249 248 247 245 242 240 240 240 240 240 240 239 237 234 231 230 230 229 228 226 223 221 221 223 223 224 229 230 235 193 152
226 224 222 220 220 220 219 219 225 235 239 240 239 239 239 241 243 244 246 249 250 251 250 249 247 245 243 243 242 242 242 242 242 241 240 237 234 233 233 229 227 228 226 223 226 228 231 238 244 252 246 207